413  
ASUS44 KOUN 210910  
RWROK  
 
WEATHER ROUNDUP FOR OKLAHOMA  
NATIONAL WEATHER SERVICE NORMAN OK  
400 AM CDT SUN JUL 21 2019  
 
NOTE: "FAIR" INDICATES FEW OR NO CLOUDS BELOW 12,000 FEET WITH NO  
SIGNIFICANT WEATHER AND/OR S TO VISIBILITY
.  
 
OKZ001>007-009>012-014-015-017-211000-  
NORTHWEST OKLAHOMA AND THE PANHANDLE  
 
CITY SKY/WX TMP DP RH WIND PRES REMARKS
 
GAGE CLEAR 78 63 59 W10 29.95R  
GUYMON PTCLDY 69 63 81 NE9 30.00F  
ENID/WOODRING HAZE 73 68 83 SE9 29.87S VSB<1/4  

 
 
OKZ016-021>023-033>039-044-045-211000-  
SOUTHWEST OKLAHOMA  
 
CITY SKY/WX TMP DP RH WIND PRES REMARKS
 
LAWTON/REGL CLEAR 77 68 73 E6 29.88R  
LAWTON/FT SILL CLEAR 75 71 88 SE5 29.88R  
FREDERICK CLEAR 80 67 64 S9 29.84R  
CLINTON CLEAR 77 65 66 S16 29.89R  
HOBART CLEAR 79 67 66 S17 29.88R  
ALTUS AFB CLEAR 74 66 76 SE8 29.87R  

 
 
OKZ018>020-024>031-211000-  
CENTRAL OKLAHOMA  
 
CITY SKY/WX TMP DP RH WIND PRES REMARKS
 
OKLAHOMA CITY PTCLDY 73 70 90 SE9 29.90R  
OKC/WILEY POST CLEAR 78 69 73 S13 29.89R  
OKC/TINKER AFB CLEAR 76 70 80 S7 29.90R  
STILLWATER CLEAR 79 69 71 SE9 29.91R  
GUTHRIE CLEAR 76 69 79 SE7 29.90R  

 
 
OKZ008-013-054>072-211000-  
NORTHEAST OKLAHOMA  
 
CITY SKY/WX TMP DP RH WIND PRES REMARKS
 
TULSA CLEAR 81 72 74 S10 29.88F  
TULSA/JONES CLEAR 80 71 74 S7 29.90S  
PONCA CITY CLEAR 78 70 76 S12 29.89R  
BARTLESVILLE CLEAR 75 72 90 SE3 29.91S  
MUSKOGEE CLEAR 75 32 20 SE6 29.93S  

 
 
OKZ032-040>043-046>053-073>077-211000-  
SOUTH CENTRAL/SOUTHEAST OKLAHOMA  
 
CITY SKY/WX TMP DP RH WIND PRES REMARKS
 
ARDMORE/DWNTWN CLEAR 75 68 78 CALM 29.90S  
MCALESTER PTCLDY 77 70 79 CALM 29.94R  

 
 
 
 
CLICK HERE TO GO TO PREVIOUS BULLETINS.

The Nexlab OK Page Main Text Page